Wind_Speed
9 11 12 13 14 14 14 15 15 16 16 16 17 17 18 19 19 19 20 20 21 21 22 22 22 23 23 23 24 24 25 25 25 25 24 24 24 25 25 25 25 26 26
6 8 11 13 14 15 15 15 17 17 18 18 18 19 19 20 21 21 22 22 23 24 24 24 25 25 26 27 27 27 28 28 29 29 29 28 28 29 29 30 30 30 30
7 8 10 12 13 15 16 16 18 19 19 20 20 20 21 21 22 22 22 24 25 26 26 26 27 28 28 29 30 30 30 31 31 32 32 32 32 32 33 33 34 35 35
7 8 9 12 13 15 16 17 18 19 20 20 21 21 21 22 22 22 23 24 25 26 26 28 29 29 30 31 31 32 33 33 34 34 35 35 36 36 37 37 37 38 38
8 8 9 11 13 14 16 17 18 18 19 20 21 22 22 22 22 23 24 24 24 25 27 28 29 30 32 32 33 34 35 36 37 37 38 39 39 40 39 40 40 41 41
9 9 10 11 12 13 15 16 17 17 18 19 20 21 22 22 23 24 25 25 26 27 28 30 31 31 32 33 35 36 37 37 39 40 40 41 41 41 41 42 43 42 42
12 12 12 12 13 14 15 16 17 19 19 19 20 21 21 21 23 24 26 27 28 29 30 31 31 32 33 34 35 36 37 38 39 40 41 41 42 43 43 44 44 44 44
14 14 14 14 14 14 15 16 17 18 19 19 19 21 22 23 23 25 27 28 29 30 31 32 33 35 35 36 37 38 40 40 41 42 42 43 44 45 46 46 46 47 47
16 17 17 17 17 17 18 18 19 19 21 21 21 22 23 25 26 28 29 30 31 32 33 33 34 35 36 38 39 40 41 43 44 45 45 46 47 47 48 48 49 49 48
19 19 19 19 19 19 19 20 20 21 22 24 25 25 26 27 29 30 31 32 33 34 34 35 36 38 40 41 42 43 44 45 46 48 49 49 49 49 49 50 51 51 51
21 21 20 21 21 21 21 22 22 23 24 26 27 28 29 30 30 31 32 33 35 36 37 38 39 41 42 44 45 46 47 48 49 50 51 52 53 54 54 54 54 54 54
22 22 23 24 23 22 23 24 25 26 27 28 29 29 30 31 32 33 34 36 37 39 40 42 43 44 46 47 48 49 51 52 53 54 55 56 56 57 56 57 57 57 57
25 25 26 27 26 26 26 26 26 28 29 29 30 31 32 33 34 36 37 39 41 42 44 45 47 48 49 51 52 53 54 56 57 58 59 59 60 60 59 59 59 58 58
27 27 28 28 28 27 27 27 27 29 30 31 32 33 34 35 37 38 40 41 43 45 47 49 50 52 53 54 55 56 57 58 59 59 60 60 61 61 61 61 60 60 59
29 29 28 28 28 28 28 28 29 30 31 32 34 35 37 38 39 41 42 44 46 48 50 52 53 54 55 56 57 58 58 58 58 58 59 59 59 59 59 59 59 59 59
30 29 28 27 28 28 29 30 31 32 32 33 35 37 39 41 42 44 46 48 50 51 53 54 55 56 56 57 57 58 58 57 57 57 57 57 57 56 56 55 55 55 54
29 28 28 28 28 29 30 31 31 32 33 35 37 39 42 44 46 47 49 50 52 53 54 55 55 55 56 56 55 55 55 54 54 53 53 52 52 52 52 51 51 50 49
27 27 28 28 28 29 30 31 33 34 35 36 39 41 43 45 47 48 50 51 52 53 53 54 54 53 53 52 52 51 51 50 49 49 48 47 47 46 46 46 45 44 44
26 26 27 27 28 29 31 33 34 35 37 39 41 43 45 47 48 49 50 50 51 51 51 50 50 49 49 48 47 47 46 45 44 44 43 43 42 42 42 41 41 40 40
24 25 25 27 28 30 32 34 36 38 39 41 43 45 46 47 48 48 48 48 48 48 47 47 46 46 45 44 44 43 42 41 41 41 40 40 39 39 38 37 36 35 35
22 24 25 28 30 32 34 36 39 40 42 43 45 46 46 46 46 46 46 46 45 45 44 44 43 42 42 41 40 39 39 38 38 38 37 37 36 35 33 32 32 31 30
25 27 29 31 33 35 37 39 40 42 43 44 45 44 43 44 44 44 44 43 43 42 42 41 40 39 39 38 38 37 37 36 36 35 34 32 31 30 29 28 27 26 26
27 29 31 33 35 37 39 40 41 42 42 42 42 42 41 41 41 41 41 41 40 39 39 38 38 37 37 36 35 34 33 33 32 31 30 30 29 27 27 26 25 24 23
30 32 34 35 37 38 39 40 40 41 40 40 40 39 39 39 39 38 38 37 37 36 36 36 36 35 35 34 33 32 31 30 30 29 28 27 26 25 24 23 22 22 20
32 34 35 36 38 38 39 39 39 39 38 38 38 37 37 36 36 35 35 35 35 35 35 35 34 33 32 32 31 30 29 29 28 27 26 25 24 23 22 21 21 20 19
33 35 36 36 37 36 36 37 37 36 36 35 34 34 34 34 33 33 33 33 34 33 33 32 31 31 30 30 29 29 28 27 27 25 24 24 23 22 21 21 20 19 19
Wind_Direction
242 233 228 228 230 229 230 232 236 238 241 242 242 247 250 254 257 259 261 263 266 267 269 271 273 275 277 279 280 283 285 286 287 287 287 286 288 288 287 286 286 285 285
242 233 229 229 231 231 235 239 242 244 245 246 248 251 254 257 260 263 264 265 267 269 270 271 273 275 277 278 279 281 283 284 285 285 285 286 287 287 286 285 284 284 284
253 242 236 236 239 241 244 246 246 248 249 250 253 256 260 261 263 265 267 269 269 271 271 272 273 275 276 277 278 280 281 282 283 283 283 284 285 285 284 284 284 284 283
266 252 247 245 245 247 247 249 250 251 253 255 258 260 262 264 266 268 270 272 272 273 274 276 276 276 277 278 279 280 280 281 281 281 282 283 285 285 284 283 283 283 283
277 264 259 256 254 255 254 254 254 256 257 258 260 261 265 268 270 271 272 274 276 276 276 277 278 279 281 281 281 280 280 281 282 282 282 282 283 284 283 282 282 282 282
283 282 274 266 263 261 259 257 258 258 259 262 265 267 268 270 272 273 275 278 279 279 279 280 282 284 283 283 284 284 284 283 282 282 283 283 283 283 284 283 282 281 280
279 279 277 276 272 266 263 262 261 262 265 266 268 269 271 272 273 275 275 277 279 280 281 282 285 284 285 286 286 287 286 285 284 283 283 283 282 282 283 283 283 281 280
277 275 274 272 273 272 269 269 267 266 268 271 271 272 274 276 277 278 279 280 282 283 284 284 284 285 286 287 286 287 287 286 284 285 285 283 282 282 283 283 282 282 281
274 275 273 273 272 271 271 273 272 270 271 275 276 278 278 280 280 281 282 283 284 285 286 287 287 287 287 288 288 288 287 286 284 284 284 284 284 283 282 282 281 281 280
273 275 274 273 274 276 275 278 276 274 275 278 280 282 283 283 283 284 284 285 286 286 287 288 288 288 288 288 288 288 287 287 286 285 285 284 283 283 284 283 282 281 281
272 274 277 276 275 276 275 276 277 277 279 281 283 284 285 285 285 286 287 287 288 288 288 288 288 288 289 289 289 288 288 288 287 286 285 285 284 284 285 284 283 282 280
273 275 276 276 275 273 274 276 278 279 281 282 284 285 285 286 287 287 288 289 289 290 290 290 290 290 289 289 289 289 288 288 287 286 286 285 284 284 283 282 282 281 281
272 274 277 277 275 276 279 280 282 283 284 285 287 288 288 289 290 290 291 291 292 292 292 292 291 291 291 291 290 289 289 288 287 287 286 285 285 284 284 283 282 281 281
272 275 277 278 278 279 282 283 285 286 286 287 289 290 291 291 292 292 292 293 293 294 293 293 293 293 292 291 291 290 289 288 288 287 287 286 286 285 284 283 282 281 280
273 275 276 278 280 281 283 284 286 288 289 290 291 292 293 293 294 295 295 295 295 295 295 294 294 293 292 292 291 291 290 289 289 288 287 287 286 285 285 284 283 282 280
273 274 276 278 280 282 284 284 285 288 290 292 293 294 295 296 296 296 297 297 297 297 296 296 295 295 294 294 293 293 292 291 290 289 289 288 288 287 286 285 284 283 282
273 275 276 278 280 283 285 287 289 291 293 295 296 296 297 298 299 299 299 299 299 299 298 298 297 296 297 296 296 295 294 293 292 291 291 290 289 288 288 287 286 284 284
276 278 280 281 283 286 288 291 292 293 294 296 297 299 300 300 301 301 301 301 301 300 300 299 299 299 299 298 297 296 295 294 294 293 292 292 291 291 290 289 287 286 284
277 279 281 284 287 290 292 293 295 296 297 299 301 302 302 303 303 303 303 303 303 303 302 302 301 300 300 299 299 298 297 296 296 295 295 294 293 293 292 292 290 288 286
275 279 285 290 293 295 296 298 299 300 302 303 303 304 304 304 304 304 304 304 304 304 303 303 302 302 301 301 301 300 299 298 298 297 297 296 295 295 295 294 292 290 288
287 291 295 297 298 299 300 301 303 304 304 305 305 306 306 306 306 306 306 306 305 305 304 304 304 304 304 303 303 302 301 301 301 300 299 298 297 296 296 296 294 293 291
296 298 298 299 301 302 303 304 305 305 306 306 307 307 306 306 306 306 306 306 306 306 305 305 305 305 305 305 305 304 303 303 303 303 302 301 301 299 298 298 297 295 293
299 300 301 302 303 304 305 305 306 306 307 307 307 307 306 306 306 307 307 307 307 307 307 307 307 307 307 307 307 306 306 305 305 305 304 304 303 301 300 299 298 297 295
300 301 303 304 305 306 306 307 307 307 307 307 306 306 307 307 308 309 309 309 309 309 309 309 308 308 308 308 307 307 307 308 308 307 306 305 305 303 301 300 298 297 296
302 303 304 306 306 307 307 307 307 307 307 307 307 308 309 310 311 311 311 311 311 311 311 311 311 310 310 310 309 309 310 310 310 310 308 307 307 306 304 301 300 298 297
304 305 306 307 307 308 307 307 307 308 308 309 310 310 310 311 311 312 312 312 312 313 314 314 313 313 312 311 310 311 311 311 311 310 310 308 306 306 304 302 300 297 296
Height
5830 5831 5833 5835 5837 5839 5841 5843 5845 5847 5849 5850 5852 5853 5854 5855 5856 5857 5858 5859 5859 5860 5860 5860 5860 5860 5860 5860 5860 5859 5859 5859 5858 5858 5857 5857 5856 5855 5855 5854 5854 5853 5853
5828 5829 5831 5833 5835 5836 5838 5840 5842 5844 5845 5847 5848 5849 5850 5851 5852 5852 5853 5854 5854 5854 5854 5855 5855 5855 5854 5854 5854 5853 5853 5852 5852 5851 5850 5850 5850 5848 5848 5847 5846 5846 5845
5827 5828 5829 5830 5832 5833 5835 5837 5838 5840 5841 5842 5843 5844 5845 5846 5846 5847 5847 5848 5848 5848 5848 5848 5848 5848 5848 5847 5847 5846 5846 5845 5845 5844 5843 5842 5842 5841 5840 5839 5838 5837 5836
5826 5826 5827 5828 5829 5830 5832 5833 5834 5835 5836 5837 5838 5839 5840 5840 5841 5841 5842 5842 5842 5842 5841 5841 5841 5841 5840 5840 5839 5839 5838 5837 5837 5835 5835 5834 5833 5831 5830 5829 5828 5827 5826
5824 5824 5824 5825 5826 5827 5828 5829 5830 5831 5832 5832 5833 5833 5834 5835 5836 5836 5836 5835 5835 5835 5835 5834 5834 5833 5832 5831 5831 5830 5829 5828 5827 5826 5825 5824 5823 5821 5820 5818 5817 5816 5815
5822 5822 5822 5823 5823 5823 5824 5825 5826 5826 5827 5828 5828 5828 5829 5830 5830 5830 5829 5829 5829 5828 5828 5827 5826 5826 5825 5823 5822 5821 5820 5819 5818 5816 5815 5814 5812 5810 5809 5807 5806 5805 5804
5820 5820 5820 5820 5819 5819 5820 5820 5821 5822 5822 5823 5823 5823 5823 5824 5824 5824 5823 5822 5822 5821 5820 5819 5818 5817 5816 5815 5813 5811 5810 5808 5807 5805 5804 5803 5801 5799 5797 5795 5794 5793 5792
5817 5816 5816 5816 5816 5816 5816 5816 5816 5816 5817 5817 5817 5818 5818 5817 5817 5817 5816 5815 5814 5813 5812 5811 5810 5808 5806 5805 5803 5802 5799 5797 5796 5794 5792 5791 5789 5787 5784 5783 5781 5779 5778
5813 5813 5813 5813 5812 5812 5812 5812 5811 5811 5811 5812 5812 5812 5811 5811 5810 5809 5808 5807 5806 5804 5803 5802 5800 5798 5796 5794 5793 5791 5788 5786 5784 5782 5780 5777 5775 5773 5771 5769 5767 5765 5764
5809 5808 5808 5808 5808 5807 5807 5807 5806 5806 5806 5806 5806 5805 5804 5804 5803 5802 5800 5799 5797 5795 5794 5792 5790 5788 5786 5783 5781 5779 5776 5774 5771 5768 5766 5763 5761 5758 5756 5754 5752 5750 5748
5803 5803 5803 5803 5802 5802 5801 5801 5801 5800 5800 5800 5799 5798 5797 5796 5795 5793 5791 5789 5788 5785 5783 5782 5779 5776 5774 5771 5768 5766 5763 5760 5757 5754 5751 5748 5745 5743 5740 5737 5735 5733 5731
5797 5797 5797 5797 5797 5796 5795 5795 5794 5794 5793 5793 5791 5790 5789 5787 5786 5784 5782 5780 5777 5775 5772 5770 5767 5765 5762 5758 5755 5752 5748 5745 5742 5738 5735 5732 5729 5726 5723 5720 5717 5715 5712
5791 5791 5791 5790 5790 5789 5789 5788 5787 5787 5786 5785 5784 5782 5781 5779 5776 5774 5772 5769 5767 5764 5761 5757 5754 5751 5748 5744 5741 5737 5733 5729 5725 5721 5717 5714 5710 5707 5704 5701 5698 5696 5693
5785 5784 5784 5783 5783 5782 5781 5780 5780 5779 5778 5776 5775 5773 5772 5769 5767 5764 5761 5758 5755 5752 5748 5744 5741 5737 5733 5728 5724 5720 5716 5711 5707 5703 5699 5695 5691 5687 5684 5681 5679 5676 5674
5777 5777 5777 5776 5775 5775 5774 5773 5772 5770 5769 5767 5765 5764 5761 5759 5756 5753 5750 5746 5742 5738 5734 5730 5726 5721 5716 5711 5707 5702 5697 5693 5688 5684 5679 5675 5671 5668 5664 5661 5658 5655 5653
5770 5770 5769 5769 5768 5767 5766 5765 5763 5762 5760 5758 5756 5753 5750 5748 5744 5740 5736 5732 5728 5723 5718 5714 5709 5704 5698 5693 5688 5683 5678 5674 5669 5665 5660 5656 5653 5649 5645 5642 5638 5636 5633
5763 5762 5762 5761 5761 5760 5759 5757 5755 5754 5751 5749 5746 5742 5739 5736 5732 5727 5723 5718 5713 5708 5702 5697 5692 5686 5681 5675 5670 5665 5660 5656 5651 5647 5643 5639 5635 5631 5627 5624 5621 5618 5616
5756 5755 5755 5754 5753 5752 5750 5748 5747 5745 5742 5739 5735 5731 5727 5723 5719 5714 5708 5703 5698 5692 5686 5681 5675 5670 5664 5659 5654 5649 5644 5639 5635 5631 5627 5623 5619 5616 5612 5609 5605 5603 5601
5749 5748 5747 5746 5745 5743 5741 5739 5737 5734 5731 5728 5724 5720 5715 5710 5706 5700 5694 5689 5683 5677 5671 5666 5660 5655 5650 5644 5639 5634 5630 5625 5621 5617 5613 5609 5605 5602 5598 5595 5592 5589 5587
5742 5741 5740 5739 5737 5735 5732 5729 5726 5723 5720 5716 5712 5707 5702 5697 5693 5687 5682 5676 5670 5664 5658 5652 5647 5642 5637 5632 5627 5622 5617 5613 5609 5604 5600 5597 5593 5590 5586 5583 5580 5577 5575
5735 5734 5732 5731 5729 5726 5723 5720 5716 5712 5708 5704 5700 5694 5689 5684 5679 5674 5668 5663 5657 5651 5646 5640 5635 5630 5625 5620 5615 5610 5606 5602 5597 5593 5589 5585 5582 5579 5576 5573 5570 5567 5565
5729 5727 5725 5722 5719 5716 5712 5709 5705 5701 5696 5692 5687 5682 5677 5672 5666 5661 5656 5651 5645 5640 5634 5629 5624 5619 5614 5610 5605 5601 5596 5591 5587 5583 5579 5575 5572 5569 5566 5563 5561 5558 5556
5721 5718 5716 5713 5710 5706 5702 5698 5694 5689 5685 5680 5675 5671 5666 5661 5655 5650 5645 5640 5634 5629 5624 5619 5614 5609 5605 5600 5596 5591 5587 5582 5578 5574 5571 5567 5564 5561 5559 5556 5553 5551 5549
5712 5709 5706 5703 5700 5696 5692 5687 5683 5678 5674 5669 5664 5660 5655 5650 5645 5640 5635 5630 5625 5620 5615 5610 5605 5600 5596 5591 5587 5583 5578 5575 5571 5567 5563 5560 5557 5554 5552 5549 5547 5545 5543
5703 5700 5697 5693 5689 5685 5681 5677 5672 5668 5663 5659 5654 5649 5645 5640 5635 5631 5626 5621 5616 5611 5606 5601 5597 5592 5588 5583 5579 5575 5571 5567 5564 5560 5557 5554 5551 5548 5545 5543 5541 5539 5538
5693 5690 5687 5683 5679 5675 5671 5667 5662 5658 5654 5649 5645 5640 5636 5631 5627 5622 5618 5613 5608 5604 5599 5594 5589 5585 5580 5576 5572 5568 5564 5561 5557 5554 5550 5548 5545 5542 5540 5538 5536 5534 5532